Tracking 23764 objects as of 17-Oct-2021
HD Live streaming from Space Station
objects crossing your sky now

CZ-3A DEB

Track CZ-3A DEB now!


NORAD ID: 36971
Int'l Code: 2007-003AH
Perigee: 538.8 km
Apogee: 44,732.4 km
Inclination: 26.4 °
Period: 819.4 minutes
Semi major axis: 29006 km
RCS: 0.005 m2 (small)
Launch date: February 2, 2007
Source: People's Republic of China (PRC)
Launch site: Xichang Space Center, China (XSC)

Note: This is SATELLITE DEBRIS
aabbcc
Your satellite tracking list
Your tracking list is empty




NASA's NSSDC Master Catalog

Two Line Element Set (TLE):
1 36971U 07003AH  21289.54690852 -.00000145  00000-0  10465-2 0  9996
2 36971  26.3520  50.0188 7617850  13.3984 358.5768  1.75734930 82517
Source of the keplerian elements: AFSPC